Location: Shenandoah County Park
(38.9356°N, 78.4524°W)
Time: 07:14:57
(UTC-04:00)

Vanguard 1 Rocket - Pass Details

Date: 07 February 2023
Orbit: 652 x 4223 km, 34.3° (Epoch: 26 March)

Event Time Altitude Azimuth Distance (km) Brightness Sun altitude
Rises 19:53:44 0° 277° (W) 7,455 13.4 -26.0°
Reaches altitude 10° 20:01:27 10° 260° (W) 6,942 12.8 -27.5°
Maximum altitude 20:14:17 17° 228° (SW) 6,740 12.2 -30.0°
Drops below altitude 10° 20:27:59 10° 195° (SSW) 7,285 12.0 -32.6°
Sets 20:36:53 0° 178° (S) 7,931 12.1 -34.4°
